Hundvaag 1 weather for Feb 1988
Month no. 8
Obs.
Da.
Temp. Dew Point Precip. Wind
Speed
Wind gusts Cloud cover Press. Humidity Wind dir. Sunny OPT
01.02.1988 1,9   0,0                
02.02.1988 4,6   8,5                
03.02.1988 3,7   16,7                
04.02.1988 4,3   9,7                
05.02.1988 3,3   19,0                
06.02.1988 2,3   15,0             1  
07.02.1988 2,4   1,6             1  
08.02.1988 1,7   3,6                
09.02.1988 1,6   0,9             1  
10.02.1988 3,6   3,3             1  
11.02.1988 2,9   6,6             1  
12.02.1988 -1,0   2,0             1  
13.02.1988 0,8   2,0             1  
14.02.1988 5,7   5,2                
15.02.1988 6,8   3,0                
16.02.1988 4,6   0,9                
17.02.1988 0,6   15,1             1  
18.02.1988 1,5   3,9                
19.02.1988 2,6   17,0             1  
20.02.1988 1,6   2,0                
21.02.1988 3,7   7,6             1  
22.02.1988 3,1   4,9                
23.02.1988 2,5   19,0             1  
24.02.1988 -1,9   1,9             1  
25.02.1988 -4,5   0,0             1  
26.02.1988 -5,5   0,0             1  
27.02.1988 -1,1   0,1                
28.02.1988 1,9   9,2             1  
29.02.1988 3,0   0,9                
                       
                       
Avrg/Sum 2,0   179,6             15